Погода в Салдусе

Погода в Салдусе : погода сейчас, прогноз погоды и архив. Всё, что Вы хотите узнать о погоде в Салдусе!

Поиск расширенной информации на нашем сайте:

Другие новости

Новости СМИ2

Главная страница сайта

Новости сайта

03.07.2017

Напоминаем, что на нашем специализированном сайте Метеоцентр.Азия вы можете получить высокодетализированные автоматические прогнозы погоды по пунктам России, СНГ и мира в авиационном формате (включающие направление и скорость ветра, видимость, явления погоды, количество и форму облачности, нижнюю и верхнюю границу облачности).


Погода в Салдусе - сегодня

Время (UTC), дата Ветер
(°,м/с) 
Видим.   Явления Облачность Т
(°С)
Тd
(°С)
f(%) Тe
(°С)
Pmin
(гПа)
dP
(гПа)
Po
(мм)
O2
(г/м3)
Тmin Tmax R s Состояние
почвы
21 23.07.17 070 (В) 1-3  н/о    н/о 
+14.4 +10.8 79 +18  1014.9  -0.3  751  285           
00 24.07.17 060 (СВ) 1-2  н/о    н/о 
+12.6 +11.1 91 +17  1013.5  -1.4  750  287           
03 24.07.17 040 (СВ) 1-2  н/о    н/о 
+12.6 +11.4 92 +17  1012.2  -1.3  749  286           
06 24.07.17 080 (В) 2-3  н/о    н/о 
+17.3 +12.5 73 +23  1010.6  -1.3  748  281           
09 24.07.17 110 (В) 3-6  н/о    н/о 
+20.8 +13.9 65 +28  1010.3  -0.2  748  277           
12 24.07.17 090 (В) 2-5  н/о    н/о 
+21.7 +13.8 61 +28  1009.7  748  276           
15 24.07.17 060 (СВ) 3-6  н/о    н/о 
+21.7 +13.3 59 +28  1009.3  -0.4  747  276           
18 24.07.17 070 (В) 1-3  н/о    н/о 
+18.8 +11.4 62 +23  1009.7  0.3  747  280           
21 24.07.17 040 (СВ) 2-3  н/о    н/о 
+14.2 +10.6 79 +17  1009.8  -0.2  747  284           
00 25.07.17 040 (СВ) 1-2  н/о    н/о 
+12.5 +12 97 +18  1009.3  -0.5  747  285           
03 25.07.17 030 (СВ) 2-2  н/о    н/о 
+12.2 +12 99 +17  1008.3  746  285           
06 25.07.17 060 (СВ) 2-4  н/о    н/о 
+19.1 +14.7 76 +28  1007.4  746  278           
09 25.07.17 070 (В) 2-4  н/о    н/о 
+22 +14.4 62 +30  1007.1  -0.2  746  275           
12 25.07.17 070 (В) 4-7  н/о    н/о 
+22.5 +12.1 52 +27  1006.2  -0.9  745  275           
15 25.07.17 050 (СВ) 3-6  н/о    н/о 
+21.9 +12.4 55 +27  1005.2  -1  744  275           
18 25.07.17 030 (СВ) 3-5  н/о    н/о 
+18 +11.9 67 +23  1004.9  -0.4  744  279           
21 25.07.17 030 (СВ) 3-5  н/о    н/о 
+15.2 +13 87 +21  1004.5  -0.5  743  281           
00 26.07.17 030 (СВ) 3-5  н/о    н/о 
+14.7 +13.3 91 +21  1003.5  -0.9  743  281           
03 26.07.17 030 (СВ) 4-7  н/о    н/о 
+14.4 +13.5 94 +20  1002.5  742  281           
06 26.07.17 040 (СВ) 4-7  н/о    н/о 
+18.9 +15.2 79 +28  1001.3  -0.9  741  276           
09 26.07.17 040 (СВ) 5-8  н/о    н/о 
+21.4 +16.2 72 +33  1000.4  -0.8  741  273           
12 26.07.17 050 (СВ) 6-11  н/о    н/о 
+21.1 +15.1 69 +30  1000.1  740  274           
15 26.07.17 040 (СВ) 3-5  н/о    н/о 
+20.3 +14.9 71 +29  1000  740  275           
18 26.07.17 040 (СВ) 2-3  н/о    н/о 
+19.7 +15.1 75 +30  1000.5  0.5  741  275           
21 26.07.17 040 (СВ) 2-4  н/о    н/о 
+18.5 +15.8 84 +29  1000.6  -0.1  741  276           
Время (UTC), дата Ветер
(°,м/с) 
Видим.   Явления Облачность Т
(°С)
Тd
(°С)
f(%) Тe
(°С)
Pmin
(гПа)
dP
(гПа)
Po
(мм)
O2
(г/м3)
Тmin Tmax R s Состояние
почвы

Для получения пояснительной информации подведите курсор к названию столбца.

ПОГОДА в Салдусе - архив

Всё, что Вы хотите узнать о погоде в Салдусе - удобно и подробно!

Выберите нужную дату (начиная с 1 января 2015* года) и нажмите кнопку "Найти".
Будут отображены архивные сводки погоды по пункту Салдус, начиная с указанной даты.


Отображать данные в формате CSV (для использования в таблицах Excel)


Внимание! Наш архив погоды предназначен исключительно для личного некоммерческого использования в познавательных целях. Если Вам необходимы официальные справки о состоянии погоды (для производственных, юридических, коммерческих и т.п. целей), обращайтесь в органы Росгидромета.

*Примечание: данная дата относится к архиву по метеостанциям СССР (Россия, СНГ, Балтия).
Архив по метеостанциям Зарубежной Европы и Азии (кроме Китая) хранится 10 дней, по другим регионам земного шара (Китай, Африка, Америка, Австралия, Океания) - 1 день.

Салдус - район местоположения метеостанции


Название, широта, долгота, высота метеостанции:
Салдус 56.7°ш. 22.5°д. 112 м над ур. моря [Латвия]

Дополнительная информация

В oтличие oт бoльшинства пoгoдных сайтoв мы публикуем пoдрoбную метеoинфoрмацию в детальнoм прoфессиoнальнoм фoрмате.

Характеристики температуры и влажнoсти вoздуха измеряются на высoте 2 м в тени вдали oт зданий и деревьев.
Скoрoсть ветра измеряется на высoте 10 м (на урoвне рoста челoвека скoрoсть ветра ниже в 1.5-2 раза). Если метеoстанция нахoдится в гoрoде или в лесу, тo скoрoсть ветра занижена на 2-4 м/с пo сравнению с oткрытым местoм. Скoрoсть ветра над акватoриями крупных рек и oзёр, а также на вершинах хoлмoв на 2-5 м/с выше, чем в oбычных услoвиях.
Атмoсфернoе давление в разных тoчках местнoсти мoжет значительнo oтличаться oт давления на метеoстанции, в зависимoсти oт услoвий рельефа (при пoдъёме на 10 м давление пoнижается примернo на 1 мм рт.ст.).